TimeBST,TemperatureF,Dew PointF,Humidity,Sea Level PressureIn,VisibilityMPH,Wind Direction,Wind SpeedMPH,Gust SpeedMPH,PrecipitationIn,Events,Conditions,WindDirDegrees,DateUTC
12:20 AM,42.8,39.2,87,29.95,-9999.0,Calm,Calm,-,N/A,,Clear,0,2013-10-15 23:20:00
12:50 AM,42.8,39.2,87,29.95,-9999.0,East,5.8,-,N/A,,Clear,90,2013-10-15 23:50:00
1:50 AM,42.8,39.2,87,29.95,6.2,East,2.3,-,N/A,,Partly Cloudy,80,2013-10-16 00:50:00
2:50 AM,42.8,39.2,87,29.95,6.2,Calm,Calm,-,N/A,,Partly Cloudy,0,2013-10-16 01:50:00
3:50 AM,44.6,41.0,87,29.89,6.2,East,8.1,-,N/A,,Partly Cloudy,90,2013-10-16 02:50:00
4:50 AM,44.6,41.0,87,29.89,6.2,ESE,5.8,-,N/A,,Partly Cloudy,110,2013-10-16 03:50:00
5:50 AM,42.8,39.2,87,29.86,6.2,Calm,Calm,-,N/A,,Partly Cloudy,0,2013-10-16 04:50:00
6:50 AM,46.4,41.0,81,29.83,6.2,ESE,9.2,-,N/A,,Partly Cloudy,110,2013-10-16 05:50:00
7:20 AM,46.4,41.0,81,29.83,6.2,East,6.9,-,N/A,,Partly Cloudy,100,2013-10-16 06:20:00
7:50 AM,46.4,41.0,81,29.80,6.2,East,6.9,-,N/A,,Partly Cloudy,100,2013-10-16 06:50:00
8:20 AM,44.6,41.0,87,29.80,6.2,East,6.9,-,N/A,,Partly Cloudy,90,2013-10-16 07:20:00
8:50 AM,46.4,41.0,81,29.80,6.2,East,5.8,-,N/A,,Partly Cloudy,90,2013-10-16 07:50:00
9:20 AM,46.4,41.0,81,29.80,6.2,ESE,6.9,-,N/A,,Scattered Clouds,120,2013-10-16 08:20:00
9:50 AM,48.2,42.8,82,29.77,6.2,ESE,17.3,-,N/A,,Scattered Clouds,110,2013-10-16 08:50:00
10:20 AM,48.2,42.8,82,29.77,6.2,ESE,13.8,-,N/A,,Scattered Clouds,110,2013-10-16 09:20:00
10:50 AM,48.2,42.8,82,29.74,6.2,ESE,15.0,-,N/A,,Scattered Clouds,110,2013-10-16 09:50:00
11:20 AM,50.0,42.8,76,29.74,6.2,ESE,11.5,-,N/A,,Scattered Clouds,110,2013-10-16 10:20:00
11:50 AM,50.0,42.8,76,29.71,6.2,ESE,16.1,-,N/A,,Scattered Clouds,110,2013-10-16 10:50:00
12:20 PM,51.8,44.6,76,29.68,6.2,ESE,16.1,27.6,N/A,,Scattered Clouds,120,2013-10-16 11:20:00
12:50 PM,51.8,44.6,76,29.68,6.2,ESE,18.4,-,N/A,,Scattered Clouds,120,2013-10-16 11:50:00
1:20 PM,53.6,44.6,72,29.65,6.2,East,10.4,24.2,N/A,,Scattered Clouds,90,2013-10-16 12:20:00
1:50 PM,53.6,44.6,72,29.65,6.2,East,13.8,-,N/A,,Scattered Clouds,100,2013-10-16 12:50:00
2:20 PM,53.6,44.6,72,29.65,6.2,East,5.8,-,N/A,,Mostly Cloudy,90,2013-10-16 13:20:00
2:50 PM,51.8,44.6,76,29.62,6.2,East,9.2,-,N/A,,Mostly Cloudy,90,2013-10-16 13:50:00
3:20 PM,53.6,44.6,72,29.62,6.2,ESE,9.2,-,N/A,,Mostly Cloudy,110,2013-10-16 14:20:00
3:50 PM,51.8,46.4,82,29.62,6.2,East,3.5,-,N/A,Rain,Light Rain,80,2013-10-16 14:50:00
4:20 PM,51.8,44.6,76,29.62,5.0,East,4.6,-,N/A,Rain,Light Rain,90,2013-10-16 15:20:00
4:50 PM,51.8,46.4,82,29.59,5.0,East,2.3,-,N/A,Rain,Light Rain,80,2013-10-16 15:50:00
5:20 PM,50.0,46.4,87,29.59,3.7,NNE,2.3,-,N/A,Rain,Light Rain,20,2013-10-16 16:20:00
5:50 PM,48.2,46.4,93,29.59,3.7,Calm,Calm,-,N/A,Rain,Light Rain,0,2013-10-16 16:50:00
6:20 PM,48.2,46.4,93,29.59,2.5,NNW,3.5,-,N/A,Rain,Light Rain,340,2013-10-16 17:20:00
6:50 PM,48.2,46.4,93,29.59,2.5,North,5.8,-,N/A,Rain,Light Rain,350,2013-10-16 17:50:00
7:20 PM,48.2,46.4,93,29.59,5.6,North,5.8,-,N/A,Rain,Light Rain,360,2013-10-16 18:20:00
7:50 PM,50.0,46.4,87,29.59,5.6,North,5.8,-,N/A,Rain,Light Rain,360,2013-10-16 18:50:00
8:20 PM,50.0,46.4,87,29.59,5.6,North,4.6,-,N/A,Rain,Light Rain,350,2013-10-16 19:20:00
8:50 PM,50.0,46.4,87,29.59,5.6,North,6.9,-,N/A,Rain,Light Rain,350,2013-10-16 19:50:00
9:20 PM,50.0,46.4,87,29.59,5.6,NNW,5.8,-,N/A,Rain,Light Rain,340,2013-10-16 20:20:00
9:50 PM,48.2,46.4,93,29.62,5.6,NNW,5.8,-,N/A,Rain,Light Rain,340,2013-10-16 20:50:00
10:20 PM,48.2,46.4,93,29.62,5.6,North,3.5,-,N/A,Rain,Light Rain,350,2013-10-16 21:20:00
10:50 PM,48.2,46.4,93,29.62,5.6,NNW,3.5,-,N/A,,Mostly Cloudy,330,2013-10-16 21:50:00
11:20 PM,48.2,46.4,93,29.62,5.6,NNW,3.5,-,N/A,,Mostly Cloudy,330,2013-10-16 22:20:00
11:50 PM,48.2,46.4,93,29.65,5.6,North,2.3,-,N/A,,Mostly Cloudy,350,2013-10-16 22:50:00